Weather History for KDEW - June, 2014

Change the Weather History Date:

Wednesday, June 18, 2014

  Actual Average Record
Temperature  
Mean Temperature 52 °F 59 °F  
Max Temperature 60 °F 74 °F 86 °F (2015)
Min Temperature 43 °F 45 °F 39 °F (2001)
Degree Days  
Heating Degree Days 13 6  
Month to date heating degree days 145 138  
Since 1 June heating degree days 145 138  
Since 1 July heating degree days 7350 7352  
Cooling Degree Days 0 1  
Month to date cooling degree days 2 1  
Year to date cooling degree days 2 4  
Since 1 June cooling degree days 2 1  
Growing Degree Days 3 (Base 50)    
Moisture  
Dew Point 49 °F    
Average Humidity 86    
Maximum Humidity 100    
Minimum Humidity 72    
Precipitation  
Precipitation 0.29 in 0.07 in 0.40 in (2005)
Month to date precipitation 1.60 1.29  
Year to date precipitation 12.66 11.03  
Sea Level Pressure  
Sea Level Pressure 29.97 in    
Wind  
Wind Speed 6 mph (SSE)    
Max Wind Speed 14 mph    
Max Gust Speed 17 mph    
Visibility 8 miles    
Events Rain    
T = Trace of Precipitation, MM = Missing Value Source: NWS Daily Summary

Daily Weather History Graph

Daily Weather History Graph

Search for Another Location

Airport or City:

Trip Planner

Search our weather history database for the weather conditions in past years. The results will help you decide how hot, cold, wet, or windy it might be!

Date:

Astronomy

Jun. 18, 2014 Rise Set
Actual Time 4:49 AM PDT 8:52 PM PDT
Civil Twilight 4:08 AM PDT 9:33 PM PDT
Nautical Twilight 3:11 AM PDT 10:30 PM PDT
Astronomical Twilight 1:33 AM PDT 12:09 AM PDT
Moon No Moon Rise 11:45 AM PDT (6/18)
Length of Visible Light 17h 24m
Length of Day
16h 02m
Waning Gibbous, 61% of the Moon is Illuminated
Jun 18
Waning Gibbous
Jun 19
Last Quarter
Jun 27
New
Jul 5
First Quarter
Jul 12
Full

Hourly Weather History & Observations

Time (PDT) Temp. Dew Point Humidity Pressure Visibility Wind Dir Wind Speed Gust Speed Precip Events Conditions
12:09 AM 48.9 °F 48.0 °F 97% 29.98 in 5.0 mi South 6.9 mph - 0.03 in Rain Heavy Rain
12:20 AM 48.9 °F 48.0 °F 97% 29.98 in 7.0 mi SSE 5.8 mph - 0.04 in Rain Light Rain
12:53 AM 48.9 °F 48.0 °F 97% 29.99 in 10.0 mi SE 5.8 mph - 0.05 in Rain Light Rain
1:11 AM 48.9 °F 48.0 °F 97% 29.97 in 10.0 mi SE 5.8 mph - 0.00 in Rain Light Rain
1:22 AM 48.9 °F 48.0 °F 97% 29.97 in 9.0 mi SE 6.9 mph - 0.01 in Rain Light Rain
1:33 AM 48.9 °F 48.0 °F 97% 29.97 in 8.0 mi ESE 5.8 mph - 0.01 in Rain Light Rain
1:53 AM 48.9 °F 48.0 °F 97% 29.98 in 8.0 mi SSE 8.1 mph - 0.03 in Rain Light Rain
2:53 AM 48.9 °F 48.0 °F 97% 29.97 in 7.0 mi SSE 8.1 mph - 0.07 in Rain Light Rain
3:53 AM 48.9 °F 46.9 °F 93% 29.99 in 5.0 mi SE 9.2 mph - 0.03 in Rain Light Rain
4:17 AM 48.9 °F 46.9 °F 93% 29.98 in 4.0 mi SSE 8.1 mph - 0.04 in Rain Rain
4:53 AM 48.0 °F 46.9 °F 96% 30.00 in 7.0 mi SSE 8.1 mph - 0.08 in Rain Light Rain
5:20 AM 48.0 °F 46.9 °F 96% 29.99 in 10.0 mi South 5.8 mph - 0.02 in Rain Light Rain
5:53 AM 48.0 °F 46.9 °F 96% 29.99 in 10.0 mi South 6.9 mph - 0.05 in Rain Light Rain
6:53 AM 48.0 °F 46.9 °F 96% 30.00 in 10.0 mi SSE 6.9 mph - 0.00 in   Overcast
7:07 AM 48.9 °F 46.9 °F 93% 29.98 in 10.0 mi South 5.8 mph - N/A   Overcast
7:31 AM 48.9 °F 46.9 °F 93% 29.98 in 10.0 mi South 6.9 mph - N/A   Overcast
7:44 AM 48.9 °F 46.9 °F 93% 29.98 in 10.0 mi SSE 6.9 mph - N/A   Overcast
7:53 AM 48.9 °F 46.9 °F 93% 29.99 in 10.0 mi South 5.8 mph - 0.01 in Rain Light Rain
8:03 AM 48.9 °F 48.0 °F 97% 29.98 in 7.0 mi South 8.1 mph - 0.00 in Rain Light Rain
8:53 AM 48.9 °F 48.0 °F 97% 30.00 in 10.0 mi South 6.9 mph - 0.02 in   Overcast
9:53 AM 50.0 °F 48.0 °F 93% 30.01 in 7.0 mi SSE 5.8 mph - N/A   Overcast
10:08 AM 50.0 °F 48.0 °F 93% 29.99 in 2.0 mi South 6.9 mph - N/A   Overcast
10:15 AM 50.0 °F 48.0 °F 93% 29.99 in 1.5 mi South 6.9 mph - N/A   Overcast
10:38 AM 50.0 °F 48.9 °F 96% 29.99 in 2.0 mi South 6.9 mph - N/A   Overcast
10:53 AM 50.0 °F 48.9 °F 96% 30.00 in 3.0 mi South 5.8 mph - N/A   Overcast
11:03 AM 51.1 °F 48.9 °F 92% 29.99 in 7.0 mi South 5.8 mph - N/A   Overcast
11:23 AM 51.1 °F 48.9 °F 92% 29.99 in 10.0 mi South 5.8 mph - N/A   Overcast
11:53 AM 52.0 °F 50.0 °F 93% 29.99 in 10.0 mi SSW 5.8 mph - N/A   Overcast
12:30 PM 53.1 °F 50.0 °F 89% 29.98 in 10.0 mi SSW 9.2 mph - N/A   Overcast
12:37 PM 53.1 °F 50.0 °F 89% 29.98 in 10.0 mi South 9.2 mph - N/A   Overcast
12:53 PM 53.1 °F 48.9 °F 86% 29.99 in 10.0 mi South 13.8 mph - N/A   Overcast
1:04 PM 53.1 °F 48.9 °F 86% 29.98 in 10.0 mi South 9.2 mph - N/A   Overcast
1:53 PM 53.1 °F 50.0 °F 89% 29.99 in 10.0 mi South 9.2 mph - N/A   Overcast
2:53 PM 55.0 °F 51.1 °F 86% 29.97 in 10.0 mi SE 9.2 mph - N/A   Overcast
3:53 PM 55.9 °F 51.1 °F 84% 29.96 in 10.0 mi SSE 8.1 mph - N/A   Overcast
4:02 PM 57.0 °F 51.1 °F 81% 29.96 in 10.0 mi SSE 9.2 mph - N/A   Overcast
4:34 PM 57.9 °F 51.1 °F 78% 29.95 in 10.0 mi SE 9.2 mph - N/A   Overcast
4:53 PM 57.9 °F 51.1 °F 78% 29.96 in 10.0 mi SSE 6.9 mph - N/A   Overcast
5:41 PM 57.0 °F 51.1 °F 81% 29.94 in 10.0 mi SE 5.8 mph - N/A   Overcast
5:53 PM 59.0 °F 51.1 °F 75% 29.94 in 10.0 mi SE 8.1 mph - N/A   Overcast
6:12 PM 60.1 °F 52.0 °F 75% 29.94 in 10.0 mi SSE 6.9 mph - N/A   Overcast
6:53 PM 60.1 °F 52.0 °F 75% 29.94 in 10.0 mi SE 5.8 mph - N/A   Partly Cloudy
7:53 PM 59.0 °F 52.0 °F 78% 29.93 in 10.0 mi East 4.6 mph - N/A   Mostly Cloudy
8:53 PM 54.0 °F 50.0 °F 86% 29.93 in 10.0 mi Calm Calm - N/A   Clear
9:53 PM 48.9 °F 48.0 °F 97% 29.94 in 9.0 mi Calm Calm - N/A   Scattered Clouds
10:45 PM 48.0 °F 46.9 °F 96% 29.94 in 3.0 mi North 3.5 mph - N/A   Scattered Clouds
10:53 PM 48.0 °F 46.9 °F 96% 29.95 in 6.0 mi Calm Calm - N/A   Mostly Cloudy
10:58 PM 48.0 °F 46.9 °F 96% 29.94 in 2.5 mi Calm Calm - N/A   Mostly Cloudy
11:02 PM 48.0 °F 46.9 °F 96% 29.94 in 0.8 mi Calm Calm - N/A   Scattered Clouds
11:15 PM 46.9 °F 46.0 °F 97% 29.94 in 2.5 mi Calm Calm - N/A   Mostly Cloudy
11:22 PM 46.9 °F 45.0 °F 93% 29.94 in 7.0 mi NE 3.5 mph - N/A   Mostly Cloudy